• Join FlightAware (Why Join?)
  • Login
  • US Flag 
02:29PM EST


 

Airport Tracker/Info


-or-


 

Live Flight TrackerFlight Track Log ✈ SWA2093 ✈ 13-Apr-2013 ✈ KBWI - KIND

Flight Track Log - Related Links

Times and Time Zones

All times are in EDT time to prevent confusion due to time zone crossing. See the SWA2093 flight status page for this flight to view local times or setup timezone preferences in your user account.

Time Position Orientation Groundspeed Altitude Reporting Facility
EDT Latitude Longitude Course Direction KTS MPH feet Rate Location/Type
11:19AM 39.1833 -76.7333 211° Southwest 170 196 2,100  Level Potomac TRACON
11:20AM 39.1833 -76.8000 270° West 221 254 5,600 3,420 Climbing Potomac TRACON
11:21AM 39.1833 -76.8833 270° West 242 278 9,100 2,580 Climbing Potomac TRACON
11:23AM 39.2064 -77.0808 279° West 289 333 13,400 2,340 Climbing Washington Center
11:24AM 39.1717 -77.1757 211° Southwest  Level FlightAware Approximate
11:24AM 39.1842 -77.1875 255° West 308 354 16,200  Level Washington Center
11:25AM 39.1289 -77.2800 232° Southwest 307 353 18,100 2,100 Climbing Washington Center
11:26AM 39.1061 -77.4078 257° West 339 390 20,400 2,460 Climbing Washington Center
11:27AM 39.0831 -77.5464 258° West 367 422 23,100 2,220 Climbing Washington Center
11:28AM 39.0600 -77.6714 257° West 373 429 24,900 1,920 Climbing Washington Center
11:29AM 39.0394 -77.7831 257° West 367 422 27,000 2,220 Climbing Washington Center
11:30AM 39.0161 -77.9186 258° West 362 417 29,400 1,860 Climbing Washington Center
11:31AM 38.9928 -78.0381 256° West 356 410 30,800 1,500 Climbing Washington Center
11:32AM 38.9714 -78.1575 257° West 351 404 32,400 1,620 Climbing Washington Center
11:33AM 38.9608 -78.2719 263° West 345 397 34,100 1,440 Climbing Washington Center
11:34AM 38.9642 -78.3922 272° West 339 390 35,300 900 Climbing Washington Center
11:35AM 38.9678 -78.5097 272° West 339 390 36,000 300 Climbing Washington Center
11:36AM 38.9708 -78.6300 272° West 339 390 36,000  Level Washington Center
11:37AM 38.9803 -78.7533 276° West 346 398 36,000  Level Washington Center
11:38AM 38.9875 -78.8764 274° West 352 405 36,000  Level Washington Center
11:39AM 38.9964 -78.9997 275° West 347 399 36,000  Level Washington Center
11:40AM 39.0036 -79.1175 275° West 347 399 36,000  Level Washington Center
11:41AM 39.0144 -79.2411 276° West 347 399 36,000  Level Washington Center
11:42AM 39.0211 -79.3617 274° West 347 399 36,000  Level Washington Center
11:43AM 39.0297 -79.4850 275° West 347 399 36,000  Level Washington Center
11:44AM 39.0425 -79.6006 278° West 360 414 36,000  Level Washington Center
11:45AM 39.0511 -79.7161 276° West 355 409 36,000  Level Washington Center
11:46AM 39.0633 -79.9656 274° West 339 390 36,000  Level Indianapolis Center
11:48AM 39.0708 -80.0878 275° West 338 389 36,000  Level Indianapolis Center
11:49AM 39.0789 -80.2069 275° West 334 384 36,000  Level Indianapolis Center
11:50AM 39.0847 -80.3272 274° West 335 386 36,000  Level Indianapolis Center
11:51AM 39.0931 -80.4467 275° West 336 387 36,000  Level Indianapolis Center
11:52AM 39.0994 -80.5672 274° West 337 388 36,000  Level Indianapolis Center
11:53AM 39.1081 -80.6875 275° West 338 389 36,000  Level Indianapolis Center
11:54AM 39.1144 -80.8075 274° West 337 388 36,000  Level Indianapolis Center
11:55AM 39.1522 -80.9483 289° West 346 398 36,000  Level Indianapolis Center
11:56AM 39.1842 -81.0661 289° West 348 400 36,000  Level Indianapolis Center
11:57AM 39.2153 -81.1836 289° West 348 400 36,000  Level Indianapolis Center
11:58AM 39.2464 -81.3011 289° West 347 399 36,000  Level Indianapolis Center
11:59AM 39.2778 -81.4197 289° West 350 403 36,000  Level Indianapolis Center
12:00PM 39.3083 -81.5367 289° West 348 400 36,000  Level Indianapolis Center
12:01PM 39.3392 -81.6542 289° West 347 399 36,000  Level Indianapolis Center
12:02PM 39.3692 -81.7722 288° West 347 399 36,000  Level Indianapolis Center
12:03PM 39.4064 -81.9128 289° West 346 398 36,000  Level Indianapolis Center
12:04PM 39.4364 -82.0311 288° West 346 398 36,000  Level Indianapolis Center
12:05PM 39.4631 -82.1392 288° West 347 399 36,000  Level Indianapolis Center
12:06PM 39.4933 -82.2600 288° West 349 402 36,000  Level Indianapolis Center
12:07PM 39.5289 -82.4006 288° West 349 402 36,000  Level Indianapolis Center
12:08PM 39.5589 -82.5206 288° West 349 402 36,000  Level Indianapolis Center
12:09PM 39.5886 -82.6392 288° West 344 396 36,000  Level Indianapolis Center
12:10PM 39.6186 -82.7578 288° West 342 394 36,000  Level Indianapolis Center
12:11PM 39.6478 -82.8767 288° West 344 396 36,000  Level Indianapolis Center
12:12PM 39.6775 -82.9975 288° West 347 399 36,000  Level Indianapolis Center
12:13PM 39.7069 -83.1181 288° West 347 399 36,000 -600 Level Indianapolis Center
12:14PM 39.7369 -83.2383 288° West 347 399 34,800 -2,340 Descending Indianapolis Center
12:15PM 39.7664 -83.3606 287° West 350 403 31,300 -2,400 Descending Indianapolis Center
12:16PM 39.7964 -83.4850 287° West 351 404 30,000 -660 Descending Indianapolis Center
12:17PM 39.8272 -83.6153 287° West 358 412 30,000  Level Indianapolis Center
12:18PM 39.8586 -83.7442 288° West 366 421 30,000  Level Indianapolis Center
12:19PM 39.8889 -83.8731 287° West 369 425 30,000 -60 Level Indianapolis Center
12:20PM 39.9200 -84.0014 288° West 368 423 29,900  Descending Indianapolis Center
12:21PM 39.9489 -84.1250 287° West 356 410 30,000  Climbing Indianapolis Center
12:22PM 39.9778 -84.2483 287° West 353 406 30,000  Level Indianapolis Center
12:23PM 40.0067 -84.3744 287° West 360 414 30,000  Level Indianapolis Center
12:24PM 40.0364 -84.4994 287° West 358 412 30,000 -120 Level Indianapolis Center
12:25PM 40.0636 -84.6256 286° West 358 412 29,800 -780 Descending Indianapolis Center
12:26PM 40.0922 -84.7486 287° West 352 405 28,500 -1,200 Descending Indianapolis Center
12:27PM 40.1172 -84.8581 287° West 316 364 27,400 -1,080 Descending Indianapolis Center
12:28PM 40.1403 -84.9656 286° West 306 352 26,400 -1,620 Descending Indianapolis Center
12:29PM 40.1711 -85.0967 287° West 321 369 24,200 -2,400 Descending Indianapolis Center
12:30PM 40.1964 -85.2083 287° West 320 368 21,600 -2,520 Descending Indianapolis Center
12:31PM 40.2197 -85.3150 286° West 306 352 19,100 -2,460 Descending Indianapolis Center
12:33PM 40.2261 -85.4194 275° West 299 344 16,700 -2,400 Descending Indianapolis Center
12:34PM 40.1833 -85.5081 238° Southwest 290 334 14,300 -2,580 Descending Indianapolis Center
12:35PM 40.1400 -85.5967 237° Southwest 290 334 11,500 -2,340 Descending Indianapolis Center
12:35PM 40.1167 -85.6333 230° Southwest 289 333 11,000 -1,020 Descending Indianapolis TRACON
12:36PM 40.0967 -85.6794 240° Southwest 280 322 10,500 -1,260 Descending Indianapolis Center
12:37PM 40.0600 -85.7508 236° Southwest 257 296 9,000 -900 Descending Indianapolis Center
12:38PM 40.0236 -85.8186 235° Southwest 254 292 8,700 -1,200 Descending Indianapolis Center
12:40PM 39.9500 -85.9833 240° Southwest 207 238 5,000 -1,380 Descending Indianapolis TRACON
12:41PM 39.9167 -86.0500 237° Southwest 209 241 4,100 -960 Descending Indianapolis TRACON
12:42PM 39.8667 -86.1167 226° Southwest 214 246 2,900 -540 Descending Indianapolis TRACON
12:43PM 39.8333 -86.1667 229° Southwest 197 227 3,000 -120 Climbing Indianapolis TRACON
12:44PM 39.8000 -86.2000 218° Southwest 166 191 2,700 -600 Descending Indianapolis TRACON
12:45PM 39.7667 -86.2500 229° Southwest 162 186 1,800 -900 Descending Indianapolis TRACON
12:47PM 39.7167 -86.2833 229° Southwest  Level FlightAware Approximate
12:54PM 39.7173 -86.2947 229° Southwest  Level Estimated
12:55PM 39.7173 -86.2947 229° Southwest  Level Estimated